Time,TemperatureF,DewpointF,PressureIn,WindDirection,WindDirectionDegrees,WindSpeedMPH,WindSpeedGustMPH,Humidity,HourlyPrecipIn,Conditions,Clouds,dailyrainin,SoftwareType,DateUTC
2013-03-28 00:02:00,24.0,17.0,30.30,SSW,212,2.0,3.0,75,0.00,,,0.00,,2013-03-28 05:02:00,
2013-03-28 00:12:00,24.0,17.0,30.30,SSW,212,2.0,3.0,75,0.00,,,0.00,,2013-03-28 05:12:00,
2013-03-28 00:22:00,23.0,17.0,30.29,SSW,211,2.0,2.0,76,0.00,,,0.00,,2013-03-28 05:22:00,
2013-03-28 00:32:00,23.0,17.0,30.30,North,0,0.0,0.0,78,0.00,,,0.00,,2013-03-28 05:32:00,
2013-03-28 00:42:00,23.0,17.0,30.30,North,0,0.0,0.0,78,0.00,,,0.00,,2013-03-28 05:42:00,
2013-03-28 00:52:00,22.0,16.0,30.30,SSW,211,0.0,1.0,78,0.00,,,0.00,,2013-03-28 05:52:00,
2013-03-28 01:02:00,22.0,16.0,30.31,SSW,193,4.0,7.0,78,0.00,,,0.00,,2013-03-28 06:02:00,
2013-03-28 01:12:00,22.0,16.0,30.31,SSW,193,4.0,7.0,78,0.00,,,0.00,,2013-03-28 06:12:00,
2013-03-28 01:22:00,23.0,17.0,30.31,South,187,3.0,5.0,77,0.00,,,0.00,,2013-03-28 06:22:00,
2013-03-28 01:32:00,23.0,16.0,30.31,South,187,3.0,4.0,74,0.00,,,0.00,,2013-03-28 06:32:00,
2013-03-28 01:42:00,23.0,16.0,30.31,South,187,3.0,4.0,74,0.00,,,0.00,,2013-03-28 06:42:00,
2013-03-28 01:52:00,23.0,16.0,30.31,South,187,2.0,4.0,73,0.00,,,0.00,,2013-03-28 06:52:00,
2013-03-28 02:02:00,24.0,17.0,30.31,South,187,2.0,3.0,73,0.00,,,0.00,,2013-03-28 07:02:00,
2013-03-28 02:12:00,24.0,17.0,30.31,South,187,2.0,3.0,73,0.00,,,0.00,,2013-03-28 07:12:00,
2013-03-28 02:22:00,23.0,16.0,30.31,South,187,1.0,2.0,73,0.00,,,0.00,,2013-03-28 07:22:00,
2013-03-28 02:32:00,21.0,15.0,30.31,South,187,1.0,2.0,77,0.00,,,0.00,,2013-03-28 07:32:00,
2013-03-28 02:42:00,21.0,15.0,30.31,South,187,1.0,2.0,77,0.00,,,0.00,,2013-03-28 07:42:00,
2013-03-28 02:52:00,21.0,15.0,30.31,South,187,0.0,1.0,77,0.00,,,0.00,,2013-03-28 07:52:00,
2013-03-28 03:02:00,20.0,15.0,30.31,South,187,0.0,1.0,79,0.00,,,0.00,,2013-03-28 08:02:00,
2013-03-28 03:12:00,20.0,15.0,30.31,South,187,0.0,1.0,79,0.00,,,0.00,,2013-03-28 08:12:00,
2013-03-28 03:21:00,21.0,16.0,30.30,North,0,0.0,0.0,79,0.00,,,0.00,,2013-03-28 08:21:00,
2013-03-28 03:32:00,20.0,15.0,30.30,North,0,0.0,0.0,79,0.00,,,0.00,,2013-03-28 08:32:00,
2013-03-28 03:42:00,20.0,15.0,30.30,North,0,0.0,0.0,79,0.00,,,0.00,,2013-03-28 08:42:00,
2013-03-28 03:52:00,20.0,15.0,30.30,North,0,0.0,0.0,82,0.00,,,0.00,,2013-03-28 08:52:00,
2013-03-28 04:02:00,20.0,15.0,30.30,North,0,0.0,0.0,81,0.00,,,0.00,,2013-03-28 09:02:00,
2013-03-28 04:12:00,20.0,15.0,30.30,North,0,0.0,0.0,81,0.00,,,0.00,,2013-03-28 09:12:00,
2013-03-28 04:22:00,19.0,14.0,30.30,North,0,0.0,0.0,81,0.00,,,0.00,,2013-03-28 09:22:00,
2013-03-28 04:32:00,19.0,14.0,30.30,North,0,0.0,0.0,82,0.00,,,0.00,,2013-03-28 09:32:00,
2013-03-28 04:42:00,19.0,14.0,30.30,North,0,0.0,0.0,82,0.00,,,0.00,,2013-03-28 09:42:00,
2013-03-28 04:52:00,19.0,14.0,30.30,South,187,1.0,3.0,82,0.00,,,0.00,,2013-03-28 09:52:00,
2013-03-28 05:03:00,18.0,14.0,30.30,South,187,0.0,2.0,83,0.00,,,0.00,,2013-03-28 10:03:00,
2013-03-28 05:12:00,18.0,14.0,30.30,South,187,0.0,2.0,83,0.00,,,0.00,,2013-03-28 10:12:00,
2013-03-28 05:22:00,18.0,14.0,30.30,North,0,0.0,0.0,83,0.00,,,0.00,,2013-03-28 10:22:00,
2013-03-28 05:32:00,18.0,14.0,30.30,North,0,0.0,0.0,83,0.00,,,0.00,,2013-03-28 10:32:00,
2013-03-28 05:42:00,18.0,14.0,30.30,North,0,0.0,0.0,83,0.00,,,0.00,,2013-03-28 10:42:00,
2013-03-28 05:52:00,18.0,14.0,30.31,North,0,0.0,0.0,84,0.00,,,0.00,,2013-03-28 10:52:00,
2013-03-28 06:02:00,18.0,14.0,30.31,North,0,0.0,0.0,84,0.00,,,0.00,,2013-03-28 11:02:00,
2013-03-28 06:12:00,18.0,14.0,30.31,North,0,0.0,0.0,84,0.00,,,0.00,,2013-03-28 11:12:00,
2013-03-28 06:22:00,17.0,13.0,30.31,North,0,0.0,0.0,84,0.00,,,0.00,,2013-03-28 11:22:00,
2013-03-28 06:32:00,17.0,13.0,30.31,South,187,0.0,1.0,84,0.00,,,0.00,,2013-03-28 11:32:00,
2013-03-28 06:42:00,17.0,13.0,30.31,South,187,0.0,1.0,84,0.00,,,0.00,,2013-03-28 11:42:00,
2013-03-28 06:52:00,16.0,12.0,30.31,North,0,0.0,0.0,85,0.00,,,0.00,,2013-03-28 11:52:00,
2013-03-28 07:02:00,16.0,13.0,30.31,North,0,0.0,0.0,86,0.00,,,0.00,,2013-03-28 12:02:00,
2013-03-28 07:12:00,16.0,13.0,30.31,North,0,0.0,0.0,86,0.00,,,0.00,,2013-03-28 12:12:00,
2013-03-28 07:22:00,16.0,13.0,30.31,North,0,0.0,0.0,86,0.00,,,0.00,,2013-03-28 12:22:00,
2013-03-28 07:32:00,16.0,13.0,30.31,North,0,0.0,0.0,86,0.00,,,0.00,,2013-03-28 12:32:00,
2013-03-28 07:42:00,16.0,13.0,30.31,North,0,0.0,0.0,86,0.00,,,0.00,,2013-03-28 12:42:00,
2013-03-28 07:52:00,16.0,13.0,30.31,North,0,0.0,0.0,86,0.00,,,0.00,,2013-03-28 12:52:00,
2013-03-28 08:02:00,17.0,14.0,30.31,North,0,0.0,0.0,86,0.00,,,0.00,,2013-03-28 13:02:00,
2013-03-28 08:12:00,17.0,14.0,30.31,North,0,0.0,0.0,86,0.00,,,0.00,,2013-03-28 13:12:00,
2013-03-28 08:22:00,18.0,14.0,30.31,South,188,0.0,1.0,84,0.00,,,0.00,,2013-03-28 13:22:00,
2013-03-28 08:32:00,20.0,16.0,30.31,North,0,0.0,0.0,83,0.00,,,0.00,,2013-03-28 13:32:00,
2013-03-28 08:42:00,20.0,16.0,30.31,North,0,0.0,0.0,83,0.00,,,0.00,,2013-03-28 13:42:00,
2013-03-28 08:52:00,23.0,18.0,30.32,South,188,0.0,2.0,80,0.00,,,0.00,,2013-03-28 13:52:00,
2013-03-28 09:02:00,25.0,18.0,30.32,South,187,1.0,2.0,74,0.00,,,0.00,,2013-03-28 14:02:00,
2013-03-28 09:12:00,25.0,18.0,30.32,South,187,1.0,2.0,74,0.00,,,0.00,,2013-03-28 14:12:00,
2013-03-28 09:22:00,27.0,18.0,30.31,South,188,0.0,1.0,69,0.00,,,0.00,,2013-03-28 14:22:00,
2013-03-28 09:32:00,28.0,18.0,30.32,South,187,0.0,3.0,67,0.00,,,0.00,,2013-03-28 14:32:00,
2013-03-28 09:42:00,28.0,18.0,30.32,South,187,0.0,3.0,67,0.00,,,0.00,,2013-03-28 14:42:00,
2013-03-28 09:52:00,32.0,20.0,30.32,ENE,75,2.0,6.0,61,0.00,,,0.00,,2013-03-28 14:52:00,
2013-03-28 10:02:00,32.0,19.0,30.32,East,89,3.0,6.0,58,0.00,,,0.00,,2013-03-28 15:02:00,
2013-03-28 10:12:00,32.0,19.0,30.32,East,89,3.0,6.0,58,0.00,,,0.00,,2013-03-28 15:12:00,
2013-03-28 10:22:00,32.0,19.0,30.32,East,90,2.0,3.0,59,0.00,,,0.00,,2013-03-28 15:22:00,
2013-03-28 10:33:00,34.0,19.0,30.32,ESE,109,3.0,4.0,54,0.00,,,0.00,,2013-03-28 15:33:00,
2013-03-28 10:43:00,34.0,19.0,30.32,ESE,109,3.0,4.0,54,0.00,,,0.00,,2013-03-28 15:43:00,
2013-03-28 10:52:00,35.0,20.0,30.32,ESE,109,2.0,4.0,53,0.00,,,0.00,,2013-03-28 15:52:00,
2013-03-28 11:02:00,36.0,20.0,30.32,ESE,109,2.0,3.0,51,0.00,,,0.00,,2013-03-28 16:02:00,
2013-03-28 11:12:00,36.0,20.0,30.32,ESE,109,2.0,3.0,51,0.00,,,0.00,,2013-03-28 16:12:00,
2013-03-28 11:23:00,36.0,19.0,30.32,ESE,109,2.0,4.0,50,0.00,,,0.00,,2013-03-28 16:23:00,
2013-03-28 11:32:00,36.0,19.0,30.32,ESE,108,2.0,3.0,49,0.00,,,0.00,,2013-03-28 16:32:00,
2013-03-28 11:42:00,36.0,19.0,30.32,ESE,108,2.0,3.0,49,0.00,,,0.00,,2013-03-28 16:42:00,
2013-03-28 11:52:00,37.0,19.0,30.32,East,101,3.0,7.0,48,0.00,,,0.00,,2013-03-28 16:52:00,
2013-03-28 12:02:00,37.0,19.0,30.32,East,90,5.0,8.0,48,0.00,,,0.00,,2013-03-28 17:02:00,
2013-03-28 12:12:00,37.0,19.0,30.32,East,90,5.0,8.0,48,0.00,,,0.00,,2013-03-28 17:12:00,
2013-03-28 12:22:00,38.0,20.0,30.32,East,93,5.0,7.0,47,0.00,,,0.00,,2013-03-28 17:22:00,
2013-03-28 12:32:00,39.0,20.0,30.32,SE,129,3.0,6.0,46,0.00,,,0.00,,2013-03-28 17:32:00,
2013-03-28 12:42:00,39.0,20.0,30.32,SE,129,3.0,6.0,46,0.00,,,0.00,,2013-03-28 17:42:00,
2013-03-28 12:52:00,39.0,19.0,30.31,SE,141,3.0,6.0,44,0.00,,,0.00,,2013-03-28 17:52:00,
2013-03-28 13:02:00,39.0,19.0,30.31,SSE,157,4.0,9.0,44,0.00,,,0.00,,2013-03-28 18:02:00,
2013-03-28 13:12:00,39.0,19.0,30.31,SSE,157,4.0,9.0,44,0.00,,,0.00,,2013-03-28 18:12:00,
2013-03-28 13:22:00,40.0,19.0,30.31,SSE,154,4.0,7.0,43,0.00,,,0.00,,2013-03-28 18:22:00,
2013-03-28 13:32:00,40.0,21.0,30.30,South,184,4.0,7.0,47,0.00,,,0.00,,2013-03-28 18:32:00,
2013-03-28 13:42:00,40.0,21.0,30.30,South,184,4.0,7.0,47,0.00,,,0.00,,2013-03-28 18:42:00,
2013-03-28 13:52:00,40.0,19.0,30.30,SE,135,4.0,8.0,43,0.00,,,0.00,,2013-03-28 18:52:00,
2013-03-28 14:02:00,41.0,21.0,30.30,South,184,4.0,9.0,44,0.00,,,0.00,,2013-03-28 19:02:00,
2013-03-28 14:12:00,41.0,21.0,30.30,South,184,4.0,9.0,44,0.00,,,0.00,,2013-03-28 19:12:00,
2013-03-28 14:22:00,41.0,20.0,30.29,SSE,154,4.0,8.0,42,0.00,,,0.00,,2013-03-28 19:22:00,
2013-03-28 14:32:00,41.0,19.0,30.29,South,174,5.0,10.0,40,0.00,,,0.00,,2013-03-28 19:32:00,
2013-03-28 14:42:00,41.0,19.0,30.29,South,174,5.0,10.0,40,0.00,,,0.00,,2013-03-28 19:42:00,
2013-03-28 14:52:00,41.0,18.0,30.28,SSE,160,4.0,8.0,39,0.00,,,0.00,,2013-03-28 19:52:00,
2013-03-28 15:03:00,41.0,18.0,30.28,South,171,3.0,6.0,39,0.00,,,0.00,,2013-03-28 20:03:00,
2013-03-28 15:12:00,41.0,18.0,30.28,South,171,3.0,6.0,39,0.00,,,0.00,,2013-03-28 20:12:00,
2013-03-28 15:22:00,42.0,19.0,30.27,SSE,163,3.0,5.0,39,0.00,,,0.00,,2013-03-28 20:22:00,
2013-03-28 15:32:00,41.0,19.0,30.27,SSE,148,4.0,8.0,41,0.00,,,0.00,,2013-03-28 20:32:00,
2013-03-28 15:42:00,41.0,19.0,30.27,SSE,148,4.0,8.0,41,0.00,,,0.00,,2013-03-28 20:42:00,
2013-03-28 15:52:00,42.0,19.0,30.27,SSE,167,5.0,8.0,40,0.00,,,0.00,,2013-03-28 20:52:00,
2013-03-28 16:02:00,41.0,18.0,30.26,SE,143,3.0,7.0,39,0.00,,,0.00,,2013-03-28 21:02:00,
2013-03-28 16:12:00,41.0,18.0,30.26,SE,143,3.0,7.0,39,0.00,,,0.00,,2013-03-28 21:12:00,
2013-03-28 16:22:00,42.0,19.0,30.26,SSE,152,4.0,8.0,40,0.00,,,0.00,,2013-03-28 21:22:00,
2013-03-28 16:32:00,42.0,19.0,30.26,SE,145,4.0,6.0,40,0.00,,,0.00,,2013-03-28 21:32:00,
2013-03-28 16:43:00,42.0,19.0,30.26,SE,145,4.0,6.0,40,0.00,,,0.00,,2013-03-28 21:43:00,
2013-03-28 16:53:00,42.0,19.0,30.26,SSE,153,3.0,6.0,39,0.00,,,0.00,,2013-03-28 21:53:00,
2013-03-28 17:02:00,42.0,19.0,30.25,SE,144,3.0,5.0,40,0.00,,,0.00,,2013-03-28 22:02:00,
2013-03-28 17:12:00,42.0,19.0,30.25,SE,144,3.0,5.0,40,0.00,,,0.00,,2013-03-28 22:12:00,
2013-03-28 17:22:00,42.0,19.0,30.25,SE,143,3.0,6.0,40,0.00,,,0.00,,2013-03-28 22:22:00,
2013-03-28 17:32:00,42.0,19.0,30.25,SE,143,4.0,6.0,40,0.00,,,0.00,,2013-03-28 22:32:00,
2013-03-28 17:42:00,42.0,19.0,30.25,SE,143,4.0,6.0,40,0.00,,,0.00,,2013-03-28 22:42:00,
2013-03-28 17:52:00,42.0,21.0,30.25,SE,143,3.0,6.0,42,0.00,,,0.00,,2013-03-28 22:52:00,
2013-03-28 18:02:00,42.0,21.0,30.25,SSE,148,2.0,4.0,42,0.00,,,0.00,,2013-03-28 23:02:00,
2013-03-28 18:12:00,42.0,21.0,30.25,SSE,148,2.0,4.0,42,0.00,,,0.00,,2013-03-28 23:12:00,
2013-03-28 18:22:00,41.0,20.0,30.25,SSE,160,2.0,4.0,42,0.00,,,0.00,,2013-03-28 23:22:00,
2013-03-28 18:32:00,41.0,20.0,30.25,SSE,154,3.0,4.0,43,0.00,,,0.00,,2013-03-28 23:32:00,
2013-03-28 18:42:00,41.0,20.0,30.25,SSE,154,3.0,4.0,43,0.00,,,0.00,,2013-03-28 23:42:00,
2013-03-28 18:53:00,40.0,21.0,30.25,SE,133,3.0,5.0,47,0.00,,,0.00,,2013-03-28 23:53:00,
2013-03-28 19:02:00,38.0,22.0,30.25,ESE,110,3.0,5.0,52,0.00,,,0.00,,2013-03-29 00:02:00,
2013-03-28 19:12:00,38.0,22.0,30.25,ESE,110,3.0,5.0,52,0.00,,,0.00,,2013-03-29 00:12:00,
2013-03-28 19:22:00,38.0,22.0,30.25,ESE,111,3.0,5.0,53,0.00,,,0.00,,2013-03-29 00:22:00,
2013-03-28 19:32:00,38.0,22.0,30.25,SE,126,4.0,7.0,51,0.00,,,0.00,,2013-03-29 00:32:00,
2013-03-28 19:42:00,38.0,22.0,30.25,SE,126,4.0,7.0,51,0.00,,,0.00,,2013-03-29 00:42:00,
2013-03-28 19:52:00,37.0,22.0,30.25,SE,141,3.0,4.0,54,0.00,,,0.00,,2013-03-29 00:52:00,
2013-03-28 20:02:00,36.0,21.0,30.25,SE,141,3.0,5.0,55,0.00,,,0.00,,2013-03-29 01:02:00,
2013-03-28 20:12:00,36.0,21.0,30.25,SE,141,3.0,5.0,55,0.00,,,0.00,,2013-03-29 01:12:00,
2013-03-28 20:22:00,36.0,21.0,30.25,SE,141,3.0,5.0,53,0.00,,,0.00,,2013-03-29 01:22:00,
2013-03-28 20:32:00,36.0,21.0,30.26,SE,141,3.0,5.0,53,0.00,,,0.00,,2013-03-29 01:32:00,
2013-03-28 20:42:00,36.0,21.0,30.26,SE,141,3.0,5.0,53,0.00,,,0.00,,2013-03-29 01:42:00,
2013-03-28 20:52:00,36.0,21.0,30.26,SE,141,3.0,5.0,53,0.00,,,0.00,,2013-03-29 01:52:00,
2013-03-28 21:02:00,34.0,20.0,30.26,SE,141,2.0,3.0,56,0.00,,,0.00,,2013-03-29 02:02:00,
2013-03-28 21:12:00,34.0,20.0,30.26,SE,141,2.0,3.0,56,0.00,,,0.00,,2013-03-29 02:12:00,
2013-03-28 21:22:00,33.0,21.0,30.26,SE,141,2.0,3.0,60,0.00,,,0.00,,2013-03-29 02:22:00,
2013-03-28 21:32:00,33.0,20.0,30.26,SE,141,3.0,4.0,58,0.00,,,0.00,,2013-03-29 02:32:00,
2013-03-28 21:42:00,33.0,20.0,30.26,SE,141,3.0,4.0,58,0.00,,,0.00,,2013-03-29 02:42:00,
2013-03-28 21:53:00,34.0,21.0,30.27,SE,141,3.0,4.0,58,0.00,,,0.00,,2013-03-29 02:53:00,
2013-03-28 22:02:00,34.0,20.0,30.27,SE,141,3.0,5.0,56,0.00,,,0.00,,2013-03-29 03:02:00,
2013-03-28 22:12:00,34.0,20.0,30.27,SE,141,3.0,5.0,56,0.00,,,0.00,,2013-03-29 03:12:00,
2013-03-28 22:22:00,33.0,20.0,30.27,SE,141,3.0,5.0,58,0.00,,,0.00,,2013-03-29 03:22:00,
2013-03-28 22:32:00,33.0,19.0,30.27,SE,142,3.0,5.0,57,0.00,,,0.00,,2013-03-29 03:32:00,
2013-03-28 22:42:00,33.0,19.0,30.27,SE,142,3.0,5.0,57,0.00,,,0.00,,2013-03-29 03:42:00,
2013-03-28 22:52:00,33.0,20.0,30.27,SSE,153,4.0,5.0,58,0.00,,,0.00,,2013-03-29 03:52:00,
2013-03-28 23:03:00,33.0,19.0,30.26,SSE,153,4.0,5.0,57,0.00,,,0.00,,2013-03-29 04:03:00,
2013-03-28 23:12:00,33.0,19.0,30.26,SSE,153,4.0,5.0,57,0.00,,,0.00,,2013-03-29 04:12:00,
2013-03-28 23:22:00,32.0,19.0,30.26,SSE,153,3.0,5.0,59,0.00,,,0.00,,2013-03-29 04:22:00,
2013-03-28 23:33:00,32.0,19.0,30.26,SSE,152,4.0,6.0,59,0.00,,,0.00,,2013-03-29 04:33:00,
2013-03-28 23:43:00,32.0,19.0,30.26,SSE,152,4.0,6.0,59,0.00,,,0.00,,2013-03-29 04:43:00,
2013-03-28 23:52:00,31.0,19.0,30.26,SSE,153,4.0,5.0,61,0.00,,,0.00,,2013-03-29 04:52:00,